Location: Sternwarte-Kraichtal
(49.1689°N, 8.6996°E)
Time: 17:33:27
(UTC+02:00)

BlueWalker 3 - Pass Details

Date: 03 March 2024
Orbit: 485 x 495 km, 53.2° (Epoch: 25 April)

Event Time Altitude Azimuth Distance (km) Brightness Sun altitude
Rises 19:45:14 0° 293° (WNW) 2,562 7.1 -16.0°
Reaches altitude 10° 19:47:29 10° 287° (WNW) 1,675 5.9 -16.3°
Maximum altitude 19:51:03 41° 216° (SW) 716 2.9 -16.9°
Enters shadow 19:52:59 22° 158° (SSE) 1,090 3.3 -17.2°
